{"data":{"norad_id":59464,"epoch":"2026-09-21T14:17:24.972288Z","epoch_age_seconds":70176,"freshness":"FRESH","line1":"1 59464U 24068K   26264.59542792  .00000114  00000+0  13660-4 0  9996","line2":"2 59464  43.0054   8.1727 0001472 282.7959  77.2728 15.27577320138438","mean_motion":15.2757732,"eccentricity":0.0001472,"inclination_deg":43.0054,"raan_deg":8.1727,"arg_perigee_deg":282.7959,"mean_anomaly_deg":77.2728,"bstar":1.366e-5,"rev_number":13843,"period_min":94.266914096368,"perigee_km":482.04715316091,"apogee_km":484.06708871011,"semimajor_km":6861.1941209355,"source":"CELESTRAK","updated_at":"2026-09-22T09:00:48.948229Z"}}